Zurück zum Katalog

STARLINK-5835

AktivKommunikationVLEO
NORAD 55772·PAYLOAD·🇺🇸 United States

Gestartet Mar 3, 2023 von Vandenberg Space Force Base

Loading…

Nächste Überflüge (nächste 24 Stunden)

TLE

AktuellSource: CelesTrak SupGP

Epoche: Sep 15, 2026, 03:01 UTC

1 55772C 23028AH  26258.12618056 -.00025509  00000+0 -21377-2 0  2585
2 55772  69.9998 106.7034 0002938 272.9778  20.8708 14.98345032    18

Verfolge STARLINK-5835 in Echtzeit mit AllMySat

Download on the App Store